{"data":{"norad_id":64464,"intl_designator":"2025-130AC","name":"STARLINK-34429","alt_names":[],"object_type":"PAYLOAD","status":"ACTIVE","operator":null,"country":"US","launch_date":"2025-06-18","launch_site_code":"AFETR","launch_vehicle":null,"mission":null,"orbit_class":"UNKNOWN","rcs_meters":null,"size_class":null,"mass_kg":null,"dimensions":null,"purposes":["comms"],"wikipedia_slug":null,"has_3d_model":false,"image_url":null,"decayed_at":null,"tle_current":{"epoch":"2026-05-25T02:35:35.541600Z","epoch_age_seconds":61667,"freshness":"FRESH","line1":"1 64464U 25130AC  26145.10805025  .00029308  00000+0  87492-3 0  9998","line2":"2 64464  53.1597  92.8262 0000967  96.7021 263.4091 15.34408398 52414","mean_motion":15.34408398,"eccentricity":9.67e-5,"inclination_deg":53.1597,"raan_deg":92.8262,"arg_perigee_deg":96.7021,"mean_anomaly_deg":263.4091,"bstar":0.00087492,"rev_number":5241,"period_min":93.847244441372,"perigee_km":462.01677285761,"apogee_km":463.3397865327,"semimajor_km":6840.8152796952,"source":"CELESTRAK","updated_at":"2026-05-25T13:38:20.454647Z"}}}